User: anonymous   Login
Location: Libas
(9.8833°N, 125.9833°E)
Time: 05:56:21
(UTC+00:00)
Language:

ALOS - Orbit

View from above orbital plane
View from above orbital plane
View from above satellite
View from above satellite

Ground track
Ground track

The orbit data is extracted from the following two-line orbital elements,

1 28931U 06002A   21015.67828202  .00000147  00000-0  37532-4 0  9991
2 28931  97.8677 357.2754 0001795  96.0137 264.1286 14.62786802798726
Epoch (UTC): 15 January 2021 16:16:43
Eccentricity: 0.0001795
inclination: 97.8677°
perigee height: 683 km
apogee height: 685 km
right ascension of ascending node: 357.2754°
argument of perigee: 96.0137°
revolutions per day: 14.62786802
mean anomaly at epoch: 264.1286°
orbit number at epoch: 79872

The dashed part of the orbit path shows where the satellite is in the earth's shadow,  

DLR